Simultaneous Nadir Overpasses (SNOs) Predictions

Prediction of SNOs between GOES-16 and METOP-C Satellite Orbit:

Table of predicted SNOs for the next 14.0 days since TLE Epoch: 6/8/2024
Index Date Time (GOES-16) GOES-16 Lat,Lon METOP-C Lat,Lon Distance(km) Time Diff (sec)
1 06/09/2024 02:46:47 -0.05, -75.20 -0.99, -79.36 474.21 80
2 06/10/2024 02:28:48 -0.05, -75.21 0.16, -74.38 95.56 80
3 06/11/2024 14:45:00 0.05, -75.22 0.85, -78.93 422.47 80
4 06/12/2024 14:27:00 0.05, -75.23 -0.24, -73.93 147.91 80
5 06/14/2024 02:43:22 -0.04, -75.25 -0.79, -78.53 373.90 80
6 06/15/2024 02:25:22 -0.04, -75.26 0.32, -73.53 197.00 80
7 06/16/2024 14:41:33 0.04, -75.29 0.68, -78.09 319.48 80
8 06/17/2024 14:23:34 0.04, -75.30 -0.43, -73.09 251.70 80
9 06/19/2024 02:39:55 -0.04, -75.33 -0.58, -77.69 269.20 80
10 06/20/2024 02:21:56 -0.04, -75.34 0.54, -72.69 302.03 80
11 06/21/2024 14:38:07 0.03, -75.37 0.44, -77.25 214.12 80
